TimeMST,TemperatureF,Dew PointF,Humidity,Sea Level PressureIn,VisibilityMPH,Wind Direction,Wind SpeedMPH,Gust SpeedMPH,PrecipitationIn,Events,Conditions,WindDirDegrees,DateUTC
12:53 AM,28.9,24.1,82,30.24,10.0,SE,12.7,-,N/A,,Clear,140,2012-11-16 07:53:00
1:53 AM,28.9,24.1,82,30.22,10.0,SE,11.5,-,N/A,,Clear,140,2012-11-16 08:53:00
2:53 AM,28.0,24.1,85,30.18,10.0,SE,15.0,-,N/A,,Clear,130,2012-11-16 09:53:00
3:53 AM,28.0,24.1,85,30.16,10.0,SE,11.5,-,N/A,,Clear,140,2012-11-16 10:53:00
4:53 AM,27.0,23.0,85,30.16,10.0,SE,6.9,-,N/A,,Clear,140,2012-11-16 11:53:00
5:53 AM,27.0,23.0,85,30.15,10.0,SE,9.2,-,N/A,,Clear,140,2012-11-16 12:53:00
6:53 AM,25.0,23.0,92,30.15,10.0,ESE,3.5,-,N/A,,Clear,120,2012-11-16 13:53:00
7:53 AM,27.0,23.0,85,30.14,10.0,SE,3.5,-,N/A,,Clear,140,2012-11-16 14:53:00
8:53 AM,30.9,26.1,82,30.12,10.0,SSE,3.5,-,N/A,,Clear,150,2012-11-16 15:53:00
9:53 AM,36.0,27.0,70,30.09,10.0,South,9.2,-,N/A,,Clear,180,2012-11-16 16:53:00
10:53 AM,41.0,28.0,60,30.06,10.0,South,6.9,-,N/A,,Clear,190,2012-11-16 17:53:00
11:53 AM,46.0,28.0,50,30.04,10.0,SSW,5.8,-,N/A,,Clear,200,2012-11-16 18:53:00
12:53 PM,48.0,26.1,42,30.03,10.0,Variable,6.9,-,N/A,,Clear,0,2012-11-16 19:53:00
1:53 PM,50.0,26.1,39,30.01,10.0,South,3.5,-,N/A,,Clear,190,2012-11-16 20:53:00
2:53 PM,50.0,26.1,39,30.01,10.0,South,4.6,-,N/A,,Clear,180,2012-11-16 21:53:00
3:53 PM,46.9,26.1,44,30.02,10.0,SE,4.6,-,N/A,,Clear,140,2012-11-16 22:53:00
4:53 PM,43.0,28.0,56,30.03,10.0,SSE,5.8,-,N/A,,Clear,150,2012-11-16 23:53:00
5:53 PM,39.9,28.0,63,30.03,10.0,SE,4.6,-,N/A,,Clear,140,2012-11-17 00:53:00
6:53 PM,30.0,24.1,79,30.06,10.0,Calm,Calm,-,N/A,,Clear,0,2012-11-17 01:53:00
7:53 PM,30.9,25.0,79,30.05,10.0,Calm,Calm,-,N/A,,Clear,0,2012-11-17 02:53:00
8:53 PM,32.0,26.1,79,30.05,10.0,NW,3.5,-,N/A,,Clear,310,2012-11-17 03:53:00
9:53 PM,33.1,26.1,75,30.04,10.0,Calm,Calm,-,N/A,,Clear,0,2012-11-17 04:53:00
10:53 PM,33.1,28.0,82,30.02,10.0,Calm,Calm,-,N/A,,Overcast,0,2012-11-17 05:53:00
11:53 PM,35.1,28.0,76,30.00,10.0,Calm,Calm,-,N/A,,Partly Cloudy,0,2012-11-17 06:53:00